This demonstration page uses our WeatherBlox Daily Observations layout. Learn more.

Left ArrowRight Arrow

Hourly Observations for May 10, 2018

Temp ( °F °C ) Dew Point ( °F °C ) Humidity (%) Winds ( mph kmh ) Pressure ( in mb ) Visibility ( mi km ) Precip ( " mm )
12:53 am 00:53 Clear 61 16.1 51 10.6 70 70 N 5 7 29.91 1013 10 16 0.00 0.00
1:53 am 01:53 Clear 59 15 52 11.1 78 78 NE 3 6 29.92 1013 10 16 0.00 0.00
2:53 am 02:53 Clear 58 14.4 52 11.1 81 81 Calm 29.91 1013 10 16 0.00 0.00
3:53 am 03:53 Clear 57 13.9 51 10.6 81 81 Calm 29.91 1013 10 16 0.00 0.00
4:53 am 04:53 Clear 55 12.8 51 10.6 87 87 Calm 29.91 1013 10 16 0.00 0.00
5:53 am 05:53 Clear 54 12.2 50 10 87 87 Calm 29.90 1013 10 16 0.00 0.00
6:53 am 06:53 Sunny 56 13.3 50 10 81 81 Calm 29.92 1013 10 16 0.00 0.00
7:53 am 07:53 Sunny 61 16.1 53 11.7 75 75 Calm 29.93 1013 10 16 0.00 0.00
8:53 am 08:53 Sunny 67 19.4 50 10 55 55 Calm 29.92 1013 10 16 0.00 0.00
9:53 am 09:53 Sunny 71 21.7 47 8.3 42 42 VRB 6 9 29.92 1013 10 16 0.00 0.00
10:53 am 10:53 Sunny 73 22.8 47 8.3 40 40 W 5 7 29.91 1013 10 16 0.00 0.00
11:53 am 11:53 Sunny 77 25 48 8.9 36 36 NW 5 7 29.89 1012 10 16 0.00 0.00
12:53 pm 12:53 Sunny 79 26.1 47 8.3 32 32 N 5 7 29.87 1012 10 16 0.00 0.00
1:53 pm 13:53 Sunny 82 27.8 42 5.6 24 24 VRB 7 11 29.85 1011 10 16 0.00 0.00
2:53 pm 14:53 Sunny 81 27.2 39 3.9 22 22 WSW 6 9 29.84 1011 10 16 0.00 0.00
3:53 pm 15:53 Sunny 83 28.3 39 3.9 21 21 VRB 5 7 29.82 1010 10 16 0.00 0.00
4:53 pm 16:53 Sunny 84 28.9 36 2.2 18 18 W 8 13 29.81 1009 10 16 0.00 0.00
5:53 pm 17:53 Sunny 85 29.4 38 3.3 19 19 NNE 6 9 29.79 1009 10 16 0.00 0.00
6:53 pm 18:53 Sunny 84 28.9 41 5 22 22 VRB 3 6 29.78 1009 10 16 0.00 0.00
7:53 pm 19:53 Sunny 79 26.1 41 5 26 26 WNW 6 9 29.78 1009 10 16 0.00 0.00
8:53 pm 20:53 Clear 75 23.9 41 5 29 29 NW 8 13 29.81 1010 10 16 0.00 0.00
9:53 pm 21:53 Clear 72 22.2 42 5.6 34 34 N 7 11 29.84 1011 10 16 0.00 0.00
10:53 pm 22:53 Clear 69 20.6 42 5.6 38 38 undefined N/A 29.86 1011 10 16 0.00 0.00
11:53 pm 23:53 Clear 67 19.4 37 2.8 33 33 NNE 14 22 29.87 1012 10 16 0.00 0.00

Powered by AerisWeather